Погода в Летнеозерском

Россия / Архангельская область     63°22′17″N   40°20′48″E
темп.,
°C
ветер,
м/с
пор.,
м/с
влажн.,
%
обл.,
%
осадки,
мм/ч
давл.,
гПа
погр.,
м
11 апреля, вс
вс1100:00+4ююз61582100 0.0 10101316
03:00+1юз51287100 1.3 1012962
06:00+1зюз61275100 0.0 10141153
09:000юз6128473 0.1 10171052
12:00+5юз6166873 0.0 10171901
15:00+5зюз8177099 0.6 10192104
18:00+3зюз612660 0.6 10221043
21:00+2зюз514775 0.6 1025916
12 апреля, пн
пн1200:00+1зюз515785 0.0 1028740
03:000зюз413865 0.0 1030487
06:00−1юз41188100 0.0 1032311
09:00+3юз487324 0.0 1033396
12:00+7ююз475379 0.0 10321163
15:00+7ю41061100 0.0 10301070
18:00+7ююз5138484 0.0 1028752
21:00+7ююз5159282 0.0 1027596
13 апреля, вт
вт1300:00+7ююз5159399 0.0 1026552
03:00+6ююз4159089 0.0 1025490
06:00+5ю41293100 0.0 1023379
09:00+7ююз41084100 0.0 1021466
12:00+7ююз4987100 0.0 1021606
15:00+9юз4879100 0.0 1020697
18:00+9ююз48854 0.0 1020515
21:00+7ююз41291100 0.0 1020359
14 апреля, ср
ср1400:00+6ююз3119463 0.0 1019306
03:00+5ююз3129588 0.0 1017303
06:00+6юз3129478 0.0 1016479
09:00+6зюз41183100 0.0 1016785
12:00+7зюз41068100 0.0 10161032
15:00+7з41055100 0.0 10171496
18:00+5зсз4757100 0.0 1019999
21:00+2з2772100 0.0 1021203
15 апреля, чт
чт1500:00+1зсз2881100 0.0 1022304
03:00−1зсз2789100 0.0 1023193
06:00−1зсз258881 0.0 1024186
09:00+2сз23645 0.0 1024795
12:00+5сз34518 0.0 10241230
15:00+6сз464497 0.0 10241759
18:00+2ссз498568 0.2 1026851
21:00−1ссз410645 0.2 1029786